| time (UTC) | temp F | wind direction | speed MPH | gust MPH | rain 1hr in | rain 24hr in | rain mn in | humidity % | barometer mb |
| 20260507161555 | 53 | 319 | 3.0 | 9.0 | 0.00 | 0.33 | 0.01 | 44 | 1006.1 |
| 20260507160059 | 54 | 355 | 5.0 | 10.0 | 0.00 | 0.33 | 0.01 | 39 | 1006.1 |
| 20260507154553 | 53 | 346 | 3.0 | 10.0 | 0.00 | 0.33 | 0.01 | 45 | 1006.2 |
| 20260507153051 | 52 | 23 | 2.0 | 11.0 | 0.00 | 0.33 | 0.01 | 51 | 1006.4 |
| 20260507151553 | 51 | 338 | 3.0 | 10.0 | 0.00 | 0.33 | 0.01 | 54 | 1006.5 |
| 20260507150057 | 51 | 344 | 2.0 | 10.0 | 0.00 | 0.33 | 0.01 | 55 | 1006.6 |
| 20260507144552 | 51 | 309 | 3.0 | 8.0 | 0.00 | 0.33 | 0.01 | 53 | 1006.6 |
| 20260507143104 | 52 | 0 | 0.0 | 8.0 | 0.00 | 0.33 | 0.01 | 55 | 1006.5 |
| 20260507141558 | 51 | 327 | 3.0 | 11.0 | 0.00 | 0.33 | 0.01 | 55 | 1006.6 |
| 20260507140051 | 52 | 355 | 3.0 | 12.0 | 0.00 | 0.33 | 0.01 | 55 | 1006.6 |
| 20260507134600 | 51 | 14 | 4.0 | 11.0 | 0.00 | 0.33 | 0.01 | 56 | 1006.7 |
| 20260507133057 | 52 | 277 | 4.0 | 10.0 | 0.00 | 0.33 | 0.01 | 57 | 1006.8 |
| 20260507131622 | 51 | 351 | 5.0 | 10.0 | 0.00 | 0.33 | 0.01 | 56 | 1007.0 |
| 20260507130100 | 50 | 311 | 4.0 | 9.0 | 0.00 | 0.33 | 0.01 | 55 | 1006.9 |
| 20260507124558 | 50 | 350 | 4.0 | 9.0 | 0.01 | 0.33 | 0.01 | 55 | 1006.8 |
| 20260507123106 | 49 | 360 | 2.0 | 10.0 | 0.01 | 0.33 | 0.01 | 57 | 1006.7 |
| 20260507121608 | 49 | 5 | 2.0 | 10.0 | 0.01 | 0.33 | 0.01 | 58 | 1007.1 |
| 20260507120057 | 48 | 338 | 4.0 | 9.0 | 0.01 | 0.33 | 0.01 | 59 | 1007.2 |
| 20260507114600 | 48 | 286 | 1.0 | 7.0 | 0.00 | 0.32 | 0.00 | 60 | 1007.2 |
| 20260507113100 | 47 | 274 | 2.0 | 9.0 | 0.00 | 0.32 | 0.00 | 63 | 1007.0 |
| 20260507111559 | 46 | 335 | 2.0 | 7.0 | 0.00 | 0.32 | 0.00 | 64 | 1007.0 |
| 20260507110114 | 45 | 0 | 2.0 | 6.0 | 0.00 | 0.32 | 0.00 | 66 | 1006.9 |
| 20260507104551 | 44 | 290 | 0.0 | 5.0 | 0.00 | 0.32 | 0.00 | 68 | 1006.6 |
| 20260507103057 | 44 | 313 | 1.0 | 4.0 | 0.00 | 0.32 | 0.00 | 68 | 1006.6 |
| 20260507101555 | 43 | 0 | 1.0 | 5.0 | 0.00 | 0.32 | 0.00 | 69 | 1007.0 |
| 20260507100052 | 44 | 313 | 1.0 | 6.0 | 0.00 | 0.32 | 0.00 | 70 | 1006.7 |
| 20260507094607 | 44 | 342 | 2.0 | 6.0 | 0.00 | 0.32 | 0.00 | 69 | 1006.9 |
| 20260507093058 | 44 | 298 | 1.0 | 5.0 | 0.00 | 0.32 | 0.00 | 69 | 1006.8 |
| 20260507091631 | 44 | 0 | 2.0 | 5.0 | 0.00 | 0.32 | 0.00 | 69 | 1006.7 |
| 20260507090105 | 44 | 302 | 2.0 | 7.0 | 0.00 | 0.32 | 0.00 | 69 | 1006.2 |
| 20260507084558 | 45 | 324 | 2.0 | 8.0 | 0.00 | 0.32 | 0.00 | 70 | 1006.2 |
| 20260507083053 | 45 | 286 | 1.0 | 8.0 | 0.00 | 0.32 | 0.00 | 71 | 1006.3 |
| 20260507081552 | 45 | 0 | 2.0 | 8.0 | 0.00 | 0.32 | 0.00 | 70 | 1006.1 |
| 20260507080052 | 45 | 294 | 2.0 | 5.0 | 0.00 | 0.32 | 0.00 | 71 | 1006.0 |
| 20260507074553 | 45 | 275 | 0.0 | 5.0 | 0.00 | 0.32 | 0.00 | 72 | 1005.8 |
| 20260507073054 | 45 | 0 | 1.0 | 7.0 | 0.00 | 0.32 | 0.00 | 71 | 1005.6 |
| 20260507071557 | 45 | 315 | 0.0 | 8.0 | 0.00 | 0.32 | 0.00 | 71 | 1005.4 |
| 20260507064551 | 46 | 293 | 2.0 | 8.0 | 0.00 | 0.32 | 0.00 | 72 | 1005.6 |
| 20260507063053 | 46 | 326 | 3.0 | 12.0 | 0.00 | 0.32 | 0.00 | 72 | 1005.8 |
| 20260507061553 | 46 | 294 | 3.0 | 9.0 | 0.00 | 0.32 | 0.00 | 72 | 1005.3 |
| 20260507060104 | 46 | 292 | 3.0 | 10.0 | 0.00 | 0.32 | 0.00 | 72 | 1005.6 |
| 20260507054559 | 46 | 302 | 3.0 | 9.0 | 0.00 | 0.32 | 0.00 | 75 | 1005.7 |
| 20260507053056 | 47 | 306 | 5.0 | 12.0 | 0.00 | 0.32 | 0.00 | 74 | 1005.3 |
| 20260507051556 | 47 | 299 | 3.0 | 12.0 | 0.00 | 0.32 | 0.00 | 76 | 1005.1 |
| 20260507050111 | 47 | 355 | 3.0 | 10.0 | 0.00 | 0.32 | 0.00 | 77 | 1005.0 |
| 20260507044602 | 47 | 278 | 3.0 | 8.0 | 0.00 | 0.32 | 0.00 | 78 | 1005.3 |
| 20260507043058 | 48 | 284 | 2.0 | 8.0 | 0.00 | 0.32 | 0.00 | 78 | 1005.3 |
| 20260507041553 | 48 | 289 | 3.0 | 10.0 | 0.00 | 0.32 | 0.00 | 77 | 1005.6 |
| 20260507040054 | 48 | 292 | 3.0 | 10.0 | 0.01 | 0.32 | 0.00 | 77 | 1005.4 |
| 20260507034558 | 48 | 300 | 2.0 | 8.0 | 0.02 | 0.32 | 0.32 | 77 | 1005.4 |
| 20260507033054 | 49 | 321 | 3.0 | 9.0 | 0.02 | 0.32 | 0.32 | 77 | 1005.3 |
| 20260507031553 | 49 | 286 | 3.0 | 10.0 | 0.02 | 0.32 | 0.32 | 77 | 1005.4 |
| 20260507030053 | 50 | 333 | 4.0 | 13.0 | 0.02 | 0.31 | 0.31 | 76 | 1005.0 |
| 20260507024558 | 51 | 301 | 4.0 | 13.0 | 0.02 | 0.30 | 0.30 | 77 | 1004.9 |
| 20260507023054 | 52 | 294 | 4.0 | 12.0 | 0.03 | 0.30 | 0.30 | 78 | 1004.9 |
| 20260507021557 | 53 | 301 | 3.0 | 11.0 | 0.03 | 0.30 | 0.30 | 78 | 1004.6 |
| 20260507020055 | 54 | 308 | 2.0 | 9.0 | 0.02 | 0.29 | 0.29 | 80 | 1004.6 |
| 20260507014552 | 54 | 337 | 1.0 | 4.0 | 0.06 | 0.28 | 0.28 | 83 | 1004.7 |
| 20260507013054 | 55 | 288 | 2.0 | 5.0 | 0.07 | 0.27 | 0.27 | 83 | 1004.5 |
| 20260507011552 | 55 | 284 | 2.0 | 6.0 | 0.08 | 0.27 | 0.27 | 82 | 1004.5 |
| 20260507010110 | 55 | 289 | 2.0 | 8.0 | 0.08 | 0.27 | 0.27 | 79 | 1004.4 |
| 20260507004553 | 56 | 340 | 2.0 | 8.0 | 0.02 | 0.21 | 0.21 | 72 | 1004.1 |
| 20260507003057 | 60 | 53 | 2.0 | 8.0 | 0.01 | 0.20 | 0.20 | 74 | 1003.5 |
| 20260507001559 | 60 | 351 | 0.0 | 8.0 | 0.00 | 0.19 | 0.19 | 74 | 1003.3 |
| 20260507000101 | 60 | 184 | 3.0 | 12.0 | 0.00 | 0.19 | 0.19 | 74 | 1003.3 |
| 20260506234602 | 60 | 189 | 4.0 | 17.0 | 0.00 | 0.21 | 0.19 | 73 | 1003.1 |
| 20260506233100 | 61 | 276 | 3.0 | 13.0 | 0.00 | 0.21 | 0.19 | 71 | 1003.0 |
| 20260506231552 | 61 | 222 | 4.0 | 14.0 | 0.00 | 0.21 | 0.19 | 70 | 1002.9 |
| 20260506230057 | 61 | 355 | 2.0 | 12.0 | 0.00 | 0.21 | 0.19 | 70 | 1002.8 |
| 20260506224554 | 61 | 200 | 4.0 | 13.0 | 0.00 | 0.21 | 0.19 | 69 | 1003.1 |
| 20260506223059 | 62 | 280 | 4.0 | 12.0 | 0.00 | 0.21 | 0.19 | 69 | 1003.0 |
| 20260506221555 | 62 | 0 | 2.0 | 14.0 | 0.00 | 0.21 | 0.19 | 70 | 1003.2 |
| 20260506220054 | 62 | 198 | 3.0 | 9.0 | 0.00 | 0.21 | 0.19 | 70 | 1003.4 |
| 20260506214601 | 62 | 210 | 1.0 | 12.0 | 0.00 | 0.21 | 0.19 | 71 | 1003.4 |
| 20260506213056 | 62 | 213 | 2.0 | 9.0 | 0.00 | 0.21 | 0.19 | 71 | 1003.5 |
| 20260506211554 | 62 | 216 | 1.0 | 20.0 | 0.00 | 0.21 | 0.19 | 72 | 1003.6 |
| 20260506210053 | 61 | 59 | 2.0 | 9.0 | 0.01 | 0.21 | 0.19 | 73 | 1003.6 |
| 20260506204555 | 61 | 291 | 2.0 | 6.0 | 0.05 | 0.21 | 0.19 | 75 | 1003.7 |
| 20260506203053 | 61 | 0 | 0.0 | 6.0 | 0.07 | 0.21 | 0.19 | 78 | 1004.0 |
| 20260506201553 | 60 | 0 | 2.0 | 6.0 | 0.07 | 0.21 | 0.19 | 78 | 1004.2 |
| 20260506200052 | 60 | 257 | 0.0 | 4.0 | 0.07 | 0.20 | 0.18 | 77 | 1004.2 |
| 20260506194552 | 60 | 0 | 0.0 | 1.0 | 0.04 | 0.16 | 0.14 | 76 | 1004.3 |
| 20260506193052 | 61 | 0 | 0.0 | 2.0 | 0.02 | 0.14 | 0.12 | 74 | 1004.4 |
| 20260506191557 | 61 | 0 | 0.0 | 5.0 | 0.04 | 0.14 | 0.12 | 73 | 1004.6 |
| 20260506190058 | 61 | 165 | 1.0 | 5.0 | 0.04 | 0.12 | 0.10 | 72 | 1004.9 |
| 20260506184558 | 61 | 179 | 2.0 | 7.0 | 0.06 | 0.12 | 0.10 | 72 | 1005.0 |
| 20260506183053 | 61 | 185 | 2.0 | 9.0 | 0.08 | 0.12 | 0.10 | 74 | 1004.9 |
| 20260506181552 | 61 | 0 | 1.0 | 6.0 | 0.07 | 0.10 | 0.08 | 73 | 1005.6 |
| 20260506180055 | 62 | 0 | 2.0 | 6.0 | 0.06 | 0.08 | 0.06 | 71 | 1005.7 |
| 20260506174559 | 63 | 271 | 0.0 | 4.0 | 0.04 | 0.06 | 0.04 | 71 | 1005.7 |
| 20260506173122 | 64 | 0 | 0.0 | 2.0 | 0.02 | 0.04 | 0.02 | 69 | 1005.6 |
| 20260506171556 | 65 | 0 | 0.0 | 7.0 | 0.01 | 0.03 | 0.01 | 65 | 1005.5 |
| 20260506170056 | 66 | 0 | 1.0 | 4.0 | 0.00 | 0.02 | 0.00 | 62 | 1005.5 |
| 20260506164552 | 66 | 0 | 2.0 | 9.0 | 0.00 | 0.02 | 0.00 | 60 | 1005.5 |
| 20260506163056 | 64 | 355 | 0.0 | 4.0 | 0.00 | 0.02 | 0.00 | 62 | 1005.7 |